CAPE
1112 1074 1258 1294 1389 1260 810 948 1374 1336 1301 1150 1298 1133 840 781 686 832 816 763 911 876 581 1262 1621 1590 1471 1372 1528 1522 1345 1069 984 787 662 764 717 636 446 446 453 613 596
101 193 790 1456 1612 1557 1391 903 1051 1374 1440 1213 1509 1369 1114 846 810 819 947 1120 884 815 828 486 471 803 1232 1432 1439 1414 904 684 700 710 582 883 839 567 430 599 322 581 666
0 0 235 832 1780 1640 1733 1545 1053 987 1209 1313 1142 1370 1380 1237 959 733 966 928 1174 1372 1420 1347 1393 1387 1422 1477 1361 1268 1218 1185 917 794 796 715 486 340 522 314 387 591 561
0 0 0 78 875 2100 1974 1846 1649 1373 1044 987 1129 1220 1362 1324 1231 1062 987 1021 915 837 799 830 923 1081 1061 1010 1123 1113 1223 1271 1122 692 714 651 384 371 251 193 285 440 750
0 0 0 0 24 969 1679 1719 1731 1880 1715 1187 1063 1249 1362 1442 1391 1272 1219 1065 1073 1024 1009 960 909 932 1007 1148 1086 1225 1083 1038 1136 711 800 698 391 237 59 206 414 518 420
0 0 0 0 0 2 703 1526 1717 1550 1644 1635 1214 1047 1123 1284 1459 1424 1327 1235 1073 1047 1035 1115 1226 1314 1321 1495 1505 1402 1133 969 882 801 815 689 319 207 37 231 380 588 208
0 0 0 0 0 0 0 605 936 1242 1389 1607 1623 1271 992 1062 1145 1396 1503 1401 1354 1516 1461 1573 1625 1635 1635 1633 1239 1149 992 892 886 877 632 668 549 205 179 152 371 389 212
0 0 0 0 0 0 0 0 375 722 896 1240 1564 1378 1060 556 1025 1194 1336 1403 1488 1533 1759 1754 1585 1509 1464 1271 976 719 647 732 754 900 1067 657 362 444 136 164 388 501 250
0 0 0 0 0 0 0 0 0 159 696 790 1071 1164 962 222 20 96 580 721 748 909 1253 1274 1288 1297 1183 1023 838 593 557 553 432 211 263 451 421 354 187 275 436 448 41
0 0 0 0 0 0 0 0 0 5 186 623 868 922 939 731 661 8 53 26 17 345 808 683 598 547 336 427 394 402 428 495 461 405 320 463 244 228 361 486 487 88 125
0 0 0 0 0 0 0 0 4 8 131 669 861 952 958 881 784 575 219 154 42 195 439 398 118 16 0 18 57 162 398 429 203 249 332 380 424 534 500 520 142 95 208
0 0 0 0 0 0 0 1 3 17 721 719 920 911 934 844 763 557 339 274 283 370 290 85 90 221 202 69 2 186 196 171 178 212 378 278 328 329 336 274 184 253 271
0 0 0 0 0 0 0 0 2 326 981 870 907 900 758 635 504 477 508 348 244 294 197 105 83 60 78 125 245 249 136 5 26 104 138 159 116 130 159 175 352 324 253
0 0 0 0 0 0 0 1 249 719 797 1212 1235 930 808 632 600 572 542 369 202 122 99 66 52 42 36 40 88 31 9 0 67 107 157 71 43 53 64 191 244 57 55
0 0 0 0 0 0 3 43 225 528 855 991 1215 757 829 734 577 498 224 85 64 59 54 5 0 0 0 8 12 20 25 28 14 9 18 27 33 82 115 172 103 62 52
0 1 55 80 96 99 119 176 392 589 976 1044 931 825 646 433 248 197 169 96 62 52 39 8 2 2 0 0 0 1 6 50 51 61 75 76 54 39 129 128 91 66 53
42 164 94 134 460 389 286 405 418 691 598 698 678 539 370 236 196 138 79 69 28 13 0 11 9 15 45 14 2 13 26 51 33 32 30 31 38 14 29 71 14 8 17
78 151 288 284 349 251 158 371 476 413 437 518 404 321 319 312 127 39 8 4 7 4 18 6 0 0 8 18 22 13 15 1 0 7 10 14 4 7 2 5 4 8 32
16 99 196 208 258 71 107 285 321 238 217 312 225 150 110 112 35 60 15 9 13 6 5 2 1 2 11 0 0 0 7 7 0 0 0 1 9 10 13 7 0 0 1
7 0 0 0 2 8 55 16 28 45 128 85 10 6 1 13 7 14 8 8 3 4 40 45 16 4 0 2 0 6 2 13 0 0 0 0 0 0 0 1 3 10 11
13 0 0 0 0 0 7 0 5 1 0 0 0 3 2 6 0 0 34 22 34 30 20 12 27 53 52 28 10 0 0 0 0 0 9 0 0 0 0 0 0 0 0
0 1 0 0 1 0 2 0 0 0 0 0 0 0 0 13 12 0 0 0 13 27 10 9 15 19 21 8 26 48 36 19 0 0 0 0 0 0 0 0 0 0 0
1 6 6 5 2 0 0 0 0 0 0 0 0 0 0 0 0 0 0 0 0 0 0 0 1 10 21 20 17 34 54 41 26 23 13 1 0 0 0 0 0 0 0
9 6 6 7 7 1 2 1 1 0 0 0 0 0 0 0 0 0 0 0 0 0 0 0 0 0 0 0 1 9 32 26 23 25 24 25 30 25 3 0 0 0 0
5 9 10 15 11 10 0 3 2 1 1 0 0 0 0 0 0 0 0 0 0 0 0 0 0 0 0 0 0 1 0 0 4 12 23 15 14 14 9 3 36 1 1
15 23 21 9 0 0 0 1 0 0 0 0 0 0 0 0 0 0 0 0 0 0 0 0 0 0 0 0 0 1 0 0 0 0 0 0 1 5 6 10 32 46 46
CIN
-12 -65 -77 -92 -84 -63 -63 -77 -73 -72 -50 -31 -30 -18 -29 -21 -74 -90 -79 -86 -60 -45 -123 -57 -18 -15 -14 -33 -14 -10 -4 -21 -14 -28 -38 -34 -30 -36 -65 -60 -67 -58 -36
-265 -63 -89 -95 -92 -76 -70 -89 -83 -80 -49 -75 -20 -12 -24 -41 -26 -93 -88 -72 -70 -56 -48 -86 -134 -78 -36 -8 -16 -11 -4 -9 -43 -25 -44 -38 -37 -59 -57 -48 -42 -69 -66
-0 -0 -54 -87 -32 -40 -31 -50 -46 -86 -94 -72 -56 -66 -26 -27 -29 -82 -89 -82 -59 -42 -26 -19 -20 -15 -11 -9 -15 -15 -13 -9 -12 -28 -37 -41 -77 -94 -68 -77 -90 -71 -79
-0 -0 -0 -53 -55 -0 -1 -12 -26 -31 -75 -84 -66 -63 -83 -44 -28 -22 -98 -82 -74 -53 -43 -55 -44 -27 -16 -38 -17 -25 -22 -15 -10 -38 -34 -42 -67 -98 -83 -129 -132 -88 -73
-0 -0 -0 -0 -114 -27 -0 -0 -1 -9 -14 -38 -75 -59 -50 -58 -39 -30 -21 -37 -73 -77 -59 -50 -66 -89 -69 -35 -21 -10 -11 -24 -12 -18 -14 -32 -73 -78 -124 -112 -104 -80 -91
-0 -0 -0 -0 -0 -62 -35 -0 -0 -0 -12 -20 -42 -32 -57 -43 -51 -32 -33 -14 -32 -52 -49 -57 -62 -43 -43 -28 -14 -10 -16 -16 -17 -14 -20 -24 -48 -52 -198 -99 -81 -36 -92
-0 -0 -0 -0 -0 -0 -0 -24 -16 -1 -1 -10 -26 -32 -34 -43 -37 -37 -23 -9 -51 -43 -38 -30 -21 -18 -20 -9 -31 -17 -23 -36 -32 -23 -27 -24 -25 -27 -26 -121 -58 -21 -43
-0 -0 -0 -0 -0 -0 -0 -0 -39 -10 -17 -6 -4 -13 -30 -1 -11 -6 -16 -6 -7 -11 -19 -24 -20 -22 -22 -27 -21 -19 -21 -20 -40 -31 -17 -26 -76 -34 -67 -103 -46 -13 -32
-0 -0 -0 -0 -0 -0 -0 -0 -0 -123 -5 -15 -12 -10 -19 -3 -178 -12 -0 -0 -6 -13 -12 -10 -19 -23 -30 -27 -19 -15 -13 -15 -13 -16 -28 -31 -50 -25 -32 -30 -43 -8 -97
-0 -0 -0 -0 -0 -0 -0 -0 -0 -1 -130 -31 -12 -51 -58 -22 -22 -28 -44 -71 -26 -2 -28 -36 -18 -15 -9 -0 -0 -17 -17 -43 -26 -29 -22 -41 -33 -19 -43 -14 -25 -59 -33
-0 -0 -0 -0 -0 -0 -0 -0 -0 -0 -183 -12 -1 -19 -47 -32 -31 -6 -10 -0 -27 -2 -8 -47 -71 -5 -0 -17 -6 -9 -12 -22 -110 -54 -33 -26 -29 -15 -15 -15 -38 -48 -16
-0 -0 -0 -0 -0 -0 -0 -0 -0 -134 -0 -5 -0 -2 -30 -43 -49 -31 -8 -19 -18 -3 -24 -47 -192 -117 -125 -52 -21 -1 -33 -16 -17 -20 -3 -13 -16 -30 -28 -22 -26 -28 -24
-0 -0 -0 -0 -0 -0 -0 -0 -0 -16 -0 -0 -0 -1 -24 -19 -34 -28 -7 -17 -25 -28 -60 -60 -70 -138 -124 -122 -21 -0 -11 -86 -104 -38 -14 -20 -19 -29 -24 -12 -15 -36 -19
-0 -0 -0 -0 -0 -0 -0 -30 -23 -0 -0 -0 -0 -1 -20 -37 -20 -4 -0 -1 -17 -57 -40 -43 -92 -102 -127 -141 -67 -78 -0 -0 -60 -29 -12 -13 -20 -20 -6 -15 -13 -23 -48
-0 -0 -0 -0 -0 -0 -1 -114 -21 -7 -0 -4 -0 -15 -1 -4 -19 -14 -34 -66 -67 -66 -49 -47 -0 -0 -0 -0 -0 -0 -8 -0 -15 -18 -16 -19 -28 -35 -21 -2 -10 -4 -7
-0 -13 -83 -128 -77 -33 -22 -11 -0 -0 -0 -0 -0 -0 -0 -11 -22 -39 -44 -66 -67 -48 -91 -0 -0 -1 -0 -0 -0 -0 -17 -9 -3 -1 -2 -0 -6 -10 -0 -0 -1 -0 -0
-4 -0 -31 -46 -0 -0 -1 -0 -0 -0 -0 -0 -0 -0 -2 -7 -9 -18 -17 -35 -71 -196 -11 -4 -2 -0 -0 -1 -0 -10 -0 -1 -3 -0 -0 -0 -0 -9 -12 -0 -0 -0 -0
-0 -0 -1 -8 -0 -0 -2 -0 -0 -0 -0 -0 -0 -0 -0 -0 -3 -13 -4 -0 -1 -0 -6 -9 -0 -0 -2 -0 -2 -5 -11 -0 -0 -0 -22 -0 -0 -1 -0 -0 -0 -0 -0
-4 -0 -0 -0 -0 -0 -11 -1 -1 -21 -34 -1 -12 -35 -52 -53 -45 -35 -12 -13 -3 -1 -12 -11 -4 -7 -0 -0 -0 -0 -66 -20 -1 -0 -0 -6 -6 -2 -0 -2 -0 -2 -1
-0 -0 -0 -1 -5 -39 -9 -0 -9 -100 -13 -15 -0 -0 -0 -18 -0 -5 -28 -25 -3 -13 -28 -25 -21 -17 -0 -45 -0 -2 -1 -11 -0 -0 -0 -0 -0 -0 -0 -1 -11 -2 -3
-2 -0 -0 -0 -0 -0 -0 -0 -0 -0 -0 -0 -0 -0 -1 -0 -0 -0 -0 -0 -0 -0 -2 -7 -25 -48 -21 -11 -17 -1 -0 -0 -0 -0 -26 -0 -0 -0 -0 -0 -0 -0 -0
-0 -0 -0 -0 -6 -0 -0 -0 -0 -0 -0 -0 -0 -0 -0 -16 -25 -0 -0 -0 -0 -0 -0 -0 -0 -5 -0 -68 -72 -26 -12 -9 -0 -0 -0 -0 -0 -0 -0 -0 -0 -0 -0
-6 -2 -0 -0 -1 -0 -0 -0 -0 -0 -0 -0 -0 -0 -0 -0 -0 -0 -0 -0 -0 -0 -0 -0 -1 -1 -1 -0 -65 -66 -38 -19 -17 -5 -0 -0 -0 -0 -0 -0 -0 -0 -0
-1 -2 -2 -4 -3 -4 -3 -2 -0 -0 -0 -0 -0 -0 -0 -0 -0 -0 -0 -0 -0 -0 -0 -0 -0 -0 -0 -0 -7 -40 -47 -50 -43 -9 -4 -3 -8 -11 -16 -0 -0 -0 -0
-26 -2 -5 -3 -2 -0 -0 -1 -1 -0 -0 -0 -0 -0 -0 -0 -0 -0 -0 -0 -0 -0 -0 -0 -0 -0 -0 -0 -0 -6 -0 -0 -3 -3 -2 -0 -68 -37 -46 -1 -0 -0 -4
-2 -1 -5 -7 -0 -0 -0 -1 -0 -0 -0 -0 -0 -0 -0 -0 -0 -0 -0 -0 -0 -0 -0 -0 -0 -0 -0 -0 -0 -5 -0 -0 -0 -0 -0 -3 -2 -2 -85 -55 -45 -37 -28
Wind_Speed
25 22 23 15 11 15 14 12 14 18 19 17 20 20 21 24 24 23 19 19 20 20 22 23 20 21 19 21 23 24 22 22 14 18 18 20 22 22 22 25 25 25 23
29 30 31 28 13 15 18 18 16 20 21 21 22 23 24 23 25 25 25 25 24 22 23 23 21 23 21 23 27 25 25 27 22 16 23 23 23 23 24 26 27 27 25
nan nan 35 35 35 19 16 18 17 20 22 23 24 22 21 24 26 26 26 26 26 26 26 25 23 28 25 27 29 27 26 27 28 24 23 27 25 27 26 28 27 25 26
nan nan nan nan 36 37 30 22 22 24 23 22 21 24 24 24 25 25 25 26 26 25 25 25 23 26 24 28 30 29 28 29 30 29 27 26 29 29 29 27 26 25 27
nan nan nan nan nan 37 41 38 31 29 27 21 23 21 24 29 31 29 29 28 27 27 28 28 27 26 27 30 33 31 31 31 32 32 29 30 29 30 nan 28 29 27 30
nan nan nan nan nan nan 37 45 42 37 30 27 24 23 22 29 28 32 35 34 31 29 28 27 27 26 25 26 31 30 36 34 30 33 28 27 26 32 nan 24 30 31 27
nan nan nan nan nan nan nan 42 45 45 42 31 29 27 28 29 34 34 34 37 38 35 30 32 32 30 29 33 32 28 30 30 31 34 27 24 23 32 35 34 32 36 32
nan nan nan nan nan nan nan nan 43 45 48 46 40 48 54 38 48 44 38 41 39 37 38 35 32 31 36 39 38 37 33 33 32 36 32 26 33 34 36 39 38 39 34
nan nan nan nan nan nan nan nan nan 44 44 48 52 55 55 51 nan nan 58 49 50 43 44 43 40 39 39 39 42 39 37 32 35 31 27 27 28 31 39 42 39 40 nan
nan nan nan nan nan nan nan nan nan nan 43 42 45 53 59 66 69 nan nan nan nan 43 42 37 42 51 55 45 41 36 37 28 39 40 41 34 31 28 36 36 40 nan 42
nan nan nan nan nan nan nan nan nan nan 41 39 41 41 47 59 59 63 58 52 nan 31 39 42 46 nan nan nan nan 32 31 37 34 31 30 40 43 42 40 38 42 nan 45
nan nan nan nan nan nan nan nan nan nan 39 39 41 45 44 42 45 50 51 53 49 46 52 nan nan 41 53 nan nan 31 32 28 37 37 36 41 45 44 43 38 40 41 42
nan nan nan nan nan nan nan nan nan 43 42 41 45 46 46 46 39 37 38 39 32 32 33 34 nan nan nan 41 31 31 37 nan nan 40 34 34 40 37 37 39 43 42 43
nan nan nan nan nan nan nan nan 46 46 44 43 43 44 47 46 44 41 40 39 36 39 nan nan nan nan nan nan nan nan nan nan nan 39 37 nan nan nan nan 38 37 nan nan
nan nan nan nan nan nan nan nan 54 47 44 44 45 48 50 44 40 40 39 nan nan nan nan nan nan nan nan nan nan nan nan nan nan nan nan nan nan nan 30 33 38 nan nan
nan nan nan nan nan nan 48 55 58 53 51 54 51 49 47 47 41 38 40 nan nan nan nan nan nan nan nan nan nan nan nan nan nan nan nan nan nan nan 37 35 nan nan nan
nan 26 nan 38 30 41 46 50 51 52 63 62 59 55 50 49 47 51 nan nan nan nan nan nan nan nan nan nan nan nan nan nan nan nan nan nan nan nan nan nan nan nan nan
nan 26 36 41 40 40 44 46 54 57 55 51 55 54 55 55 51 nan nan nan nan nan nan nan nan nan nan nan nan nan nan nan nan nan nan nan nan nan nan nan nan nan nan
nan nan 29 35 40 nan 40 46 52 56 53 52 52 52 54 55 nan nan nan nan nan nan nan nan nan nan nan nan nan nan nan nan nan nan nan nan nan nan nan nan nan nan nan
nan nan nan nan nan nan nan nan nan nan 51 nan nan nan nan nan nan nan nan nan nan nan nan nan nan nan nan nan nan nan nan nan nan nan nan nan nan nan nan nan nan nan nan
nan nan nan nan nan nan nan nan nan nan nan nan nan nan nan nan nan nan nan nan nan nan nan nan nan nan nan nan nan nan nan nan nan nan nan nan nan nan nan nan nan nan nan
nan nan nan nan nan nan nan nan nan nan nan nan nan nan nan nan nan nan nan nan nan nan nan nan nan nan nan nan nan nan nan nan nan nan nan nan nan nan nan nan nan nan nan
nan nan nan nan nan nan nan nan nan nan nan nan nan nan nan nan nan nan nan nan nan nan nan nan nan nan nan nan nan nan nan nan nan nan nan nan nan nan nan nan nan nan nan
nan nan nan nan nan nan nan nan nan nan nan nan nan nan nan nan nan nan nan nan nan nan nan nan nan nan nan nan nan nan nan nan nan nan nan nan nan nan nan nan nan nan nan
nan nan nan nan nan nan nan nan nan nan nan nan nan nan nan nan nan nan nan nan nan nan nan nan nan nan nan nan nan nan nan nan nan nan nan nan nan nan nan nan nan nan nan
nan nan nan nan nan nan nan nan nan nan nan nan nan nan nan nan nan nan nan nan nan nan nan nan nan nan nan nan nan nan nan nan nan nan nan nan nan nan nan nan nan nan nan
Wind_Direction
247 243 235 228 272 280 275 260 256 248 247 250 262 264 263 268 272 274 278 278 283 283 282 282 290 294 298 298 298 301 303 302 304 292 295 298 301 309 310 311 307 307 317
251 235 239 245 295 297 291 280 275 266 252 253 253 264 269 269 272 279 281 283 285 285 281 280 284 287 295 296 295 299 300 299 300 301 298 303 310 306 308 301 308 313 317
nan nan 244 240 238 262 283 271 273 276 267 257 256 258 266 273 274 275 279 280 283 284 283 283 283 284 289 288 292 295 293 294 294 295 300 302 301 297 295 301 309 311 312
nan nan nan nan 245 239 241 255 266 273 272 267 263 261 262 263 270 275 281 285 285 282 279 280 283 284 287 287 287 290 289 286 287 291 294 295 298 297 299 302 299 306 314
nan nan nan nan nan 243 237 241 247 256 261 260 262 262 262 261 259 267 270 273 276 276 275 275 276 280 286 286 280 282 284 283 282 285 287 291 288 292 nan 294 297 297 305
nan nan nan nan nan nan 237 235 235 237 250 252 260 263 262 259 269 270 269 263 261 261 264 269 270 275 280 288 294 293 287 284 284 285 283 296 285 286 nan 298 292 290 293
nan nan nan nan nan nan nan 232 233 232 238 245 259 261 260 258 265 270 267 255 261 265 265 264 262 266 271 273 282 291 287 288 294 291 291 291 288 293 292 293 295 295 299
nan nan nan nan nan nan nan nan 229 236 235 242 245 255 246 242 234 241 247 248 239 246 256 258 259 258 262 268 269 269 272 278 287 285 287 285 289 289 293 295 300 299 299
nan nan nan nan nan nan nan nan nan 233 235 237 245 253 259 265 nan nan 240 241 242 241 244 250 255 257 255 262 266 272 269 269 274 283 283 284 284 291 289 289 294 294 nan
nan nan nan nan nan nan nan nan nan nan 234 242 246 248 252 260 274 nan nan nan nan 242 250 254 261 264 254 249 257 262 265 281 276 272 265 265 270 275 288 289 287 nan 297
nan nan nan nan nan nan nan nan nan nan 238 240 252 260 266 267 267 277 294 294 nan 269 245 251 262 nan nan nan nan 262 269 260 286 290 276 264 265 274 277 283 286 nan 290
nan nan nan nan nan nan nan nan nan nan 241 244 254 262 265 264 266 271 289 295 290 283 292 nan nan 273 289 nan nan 274 270 276 276 291 282 268 269 270 268 275 287 289 284
nan nan nan nan nan nan nan nan nan 243 242 247 255 261 265 270 270 274 280 283 292 281 277 282 nan nan nan 286 288 280 275 nan nan 290 268 306 299 281 261 266 271 278 279
nan nan nan nan nan nan nan nan 238 242 243 245 254 259 261 265 269 269 268 269 275 277 nan nan nan nan nan nan nan nan nan nan nan 276 278 nan nan nan nan 266 269 nan nan
nan nan nan nan nan nan nan nan 233 238 240 244 249 256 261 263 264 265 266 nan nan nan nan nan nan nan nan nan nan nan nan nan nan nan nan nan nan nan 259 262 262 nan nan
nan nan nan nan nan nan 232 236 233 232 233 241 250 254 248 251 263 266 265 nan nan nan nan nan nan nan nan nan nan nan nan nan nan nan nan nan nan nan 246 249 nan nan nan
nan 208 nan 209 220 224 228 234 236 237 239 236 241 245 250 259 259 263 nan nan nan nan nan nan nan nan nan nan nan nan nan nan nan nan nan nan nan nan nan nan nan nan nan
nan 190 204 207 209 211 218 229 235 236 237 238 239 246 248 253 254 nan nan nan nan nan nan nan nan nan nan nan nan nan nan nan nan nan nan nan nan nan nan nan nan nan nan
nan nan 194 196 204 nan 217 226 234 238 238 241 243 246 245 248 nan nan nan nan nan nan nan nan nan nan nan nan nan nan nan nan nan nan nan nan nan nan nan nan nan nan nan
nan nan nan nan nan nan nan nan nan nan 243 nan nan nan nan nan nan nan nan nan nan nan nan nan nan nan nan nan nan nan nan nan nan nan nan nan nan nan nan nan nan nan nan
nan nan nan nan nan nan nan nan nan nan nan nan nan nan nan nan nan nan nan nan nan nan nan nan nan nan nan nan nan nan nan nan nan nan nan nan nan nan nan nan nan nan nan
nan nan nan nan nan nan nan nan nan nan nan nan nan nan nan nan nan nan nan nan nan nan nan nan nan nan nan nan nan nan nan nan nan nan nan nan nan nan nan nan nan nan nan
nan nan nan nan nan nan nan nan nan nan nan nan nan nan nan nan nan nan nan nan nan nan nan nan nan nan nan nan nan nan nan nan nan nan nan nan nan nan nan nan nan nan nan
nan nan nan nan nan nan nan nan nan nan nan nan nan nan nan nan nan nan nan nan nan nan nan nan nan nan nan nan nan nan nan nan nan nan nan nan nan nan nan nan nan nan nan
nan nan nan nan nan nan nan nan nan nan nan nan nan nan nan nan nan nan nan nan nan nan nan nan nan nan nan nan nan nan nan nan nan nan nan nan nan nan nan nan nan nan nan
nan nan nan nan nan nan nan nan nan nan nan nan nan nan nan nan nan nan nan nan nan nan nan nan nan nan nan nan nan nan nan nan nan nan nan nan nan nan nan nan nan nan nan